Terminal Aerodrome Forecast
Issued by NWS Sterling, VA

Current Version | Previous Version | Text Only | Print | Product List | Glossary Off
Versions: 1 2 3 4 5 6 7 8 9 10 11 12 13 14 15 16 17 18 19 20 21 22 23 24 25

233
FTUS41 KLWX 152110 AAA
TAFDCA
TAF AMD
KDCA 152110Z 1521/1618 03008KT P6SM OVC150
     FM160200 VRB03KT P6SM BKN110
     FM161600 VRB03KT P6SM OVC030
     FM161700 17004KT P6SM OVC015=

USA.gov is the U.S. government's official web portal to all federal, state and local government web resources and services.